This demonstration page uses our WeatherBlox Daily Observations layout. Learn more.

Left ArrowRight Arrow

39.29038, -76.61219

Hourly Observations for January 10, 2017

Temp ( °F °C ) Dew Point ( °F °C ) Humidity (%) Winds ( mph kmh ) Pressure ( in mb ) Visibility ( mi km ) Precip ( " mm )
12:54 am 00:54 undefined 22 -5.6 5 -15 48 48 undefined N/A 30.70 1040 N/A 0.00 0.00
1:54 am 01:54 undefined 22 -5.6 8 -13.3 55 55 undefined N/A 30.54 1034 N/A 0.00 0.00
2:54 am 02:54 undefined 23 -5 8 -13.3 53 53 undefined N/A 30.59 1036 N/A 0.00 0.00
3:54 am 03:54 undefined 23 -5 8 -13.3 53 53 undefined N/A 30.63 1037 N/A 0.00 0.00
4:54 am 04:54 undefined 23 -5 8 -13.3 53 53 undefined N/A 30.53 1034 N/A 0.00 0.00
5:54 am 05:54 undefined 24 -4.4 8 -13.3 50 50 undefined N/A 30.63 1037 N/A 0.00 0.00
6:54 am 06:54 undefined 24 -4.4 9 -12.8 52 52 undefined N/A 30.57 1035 N/A 0.00 0.00
7:54 am 07:54 undefined 25 -3.9 9 -12.8 50 50 undefined N/A 30.55 1035 N/A 0.00 0.00
8:54 am 08:54 undefined 27 -2.8 10 -12.2 49 49 undefined N/A 30.58 1036 N/A 0.00 0.00
9:54 am 09:54 undefined 29 -1.7 10 -12.2 45 45 undefined N/A 30.61 1037 N/A 0.00 0.00
10:54 am 10:54 undefined 31 -0.6 10 -12.2 42 42 undefined N/A 30.59 1036 N/A 0.00 0.00
11:54 am 11:54 undefined 32 0 11 -11.7 41 41 undefined N/A 30.52 1034 N/A 0.00 0.00
12:54 pm 12:54 undefined 34 1.1 12 -11.1 40 40 undefined N/A 30.47 1032 N/A 0.00 0.00
1:54 pm 13:54 undefined 35 1.7 13 -10.6 40 40 undefined N/A 30.43 1031 N/A 0.00 0.00
2:54 pm 14:54 undefined 35 1.7 15 -9.4 44 44 undefined N/A 30.42 1030 N/A 0.00 0.00
3:54 pm 15:54 undefined 35 1.7 18 -7.8 50 50 undefined N/A 30.40 1029 N/A 0.00 0.00
4:54 pm 16:54 undefined 35 1.7 21 -6.1 57 57 undefined N/A 30.37 1029 N/A 0.00 0.00
5:54 pm 17:54 undefined 35 1.7 22 -5.6 59 59 undefined N/A 30.36 1028 N/A 0.00 0.00
6:54 pm 18:54 undefined 36 2.2 23 -5 59 59 undefined N/A 30.35 1028 N/A 0.00 0.00
7:54 pm 19:54 undefined 37 2.8 16 -8.9 42 42 undefined N/A 30.31 1026 N/A 0.00 0.00
8:54 pm 20:54 undefined 38 3.3 15 -9.4 39 39 undefined N/A 30.26 1025 N/A 0.00 0.00
9:54 pm 21:54 undefined 40 4.4 16 -8.9 38 38 undefined N/A 30.23 1024 N/A 0.00 0.00
10:54 pm 22:54 undefined 40 4.4 21 -6.1 47 47 undefined N/A 30.21 1023 N/A 0.00 0.00
11:54 pm 23:54 undefined 39 3.9 28 -2.2 65 65 undefined N/A 30.18 1022 N/A 0.04 1.02

Powered by AerisWeather